This is the latest recevied weather packets stored in our database for station/object N5UKZ-WX. If no packets are shown the sender has not sent any weather packets the latest 10 day(s).
| Time | Temp. | Humidity | Pressure | Rain* | Wind** | Luminosity | Snow |
|---|---|---|---|---|---|---|---|
| 1777421114 | 28.89° C | 69% | 1013.9 hPa | 0 mm | - | - | - |
| 1777420213 | 29.44° C | 67% | 1013.9 hPa | 0 mm | - | - | - |
| 1777419313 | 28.89° C | 66% | 1013.6 hPa | 0 mm | - | - | - |
| 1777418413 | 28.89° C | 65% | 1013.2 hPa | 0 mm | - | - | - |
| 1777417513 | 29.44° C | 65% | 1012.9 hPa | 0 mm | - | - | - |
| 1777416613 | 30° C | 66% | 1012.9 hPa | 0 mm | - | - | - |
| 1777415712 | 30.56° C | 66% | 1012.9 hPa | 0 mm | - | - | - |
| 1777414812 | 30° C | 65% | 1012.9 hPa | 0 mm | - | - | - |
| 1777413912 | 30.56° C | 64% | 1013.2 hPa | 0 mm | - | - | - |
| 1777413012 | 30° C | 64% | 1013.2 hPa | 0 mm | - | - | - |
| 1777412112 | 31.11° C | 63% | 1013.6 hPa | 0 mm | - | - | - |
| 1777411211 | 30.56° C | 64% | 1013.2 hPa | 0 mm | - | - | - |
| 1777410311 | 31.11° C | 65% | 1013.6 hPa | 0 mm | - | - | - |
| 1777409411 | 30° C | 65% | 1013.6 hPa | 0 mm | - | - | - |
| 1777408511 | 31.11° C | 65% | 1013.9 hPa | 0 mm | - | - | - |
| 1777407611 | 31.67° C | 65% | 1014.3 hPa | 0 mm | - | - | - |
| 1777406710 | 31.11° C | 66% | 1014.6 hPa | 0 mm | - | - | - |
| 1777405810 | 30.56° C | 65% | 1014.9 hPa | 0 mm | - | - | - |
| 1777404910 | 31.11° C | 66% | 1014.9 hPa | 0 mm | - | - | - |
| 1777404010 | 30° C | 67% | 1015.3 hPa | 0 mm | - | - | - |
| 1777403110 | 30° C | 68% | 1015.6 hPa | 0 mm | - | - | - |
| 1777402209 | 30° C | 68% | 1015.3 hPa | 0 mm | - | - | - |
| 1777401309 | 29.44° C | 68% | 1015.6 hPa | 0 mm | - | - | - |
| 1777400409 | 29.44° C | 69% | 1015.6 hPa | 0 mm | - | - | - |
| 1777399509 | 29.44° C | 71% | 1015.6 hPa | 0 mm | - | - | - |
* Rain latest hour (hover to see other rain measurements)
** Current wind speed in m/s (hover to see current wind gust speed)